Flag for Canada Weather past 2 weeks in Peterborough, Ontario, Canada

Now
52 °F

Sunny.


Feels Like: 52 °F
Forecast: N/A
Wind: 2 mph from North

Location: Peterborough Airport


UV Index: N/A

Visibility: 9 mi


Pressure: 30.42 "Hg

Humidity: 41%

Dew point: 28 °F

Location of PeterboroughLocation

Historic Weather in Peterborough

°F

Peterborough temperature yesterday

Maximum temperature yesterday: 48 °F (at 12:00 PM)
Minimum temperature yesterday: 34 °F (at 2:00 AM)
Average temperature yesterday: 42 °F

Past Weeks' High & Low Weather Summary

 TemperatureHumidityPressure
High70 °F (Apr 14, 10:50 AM)100% (Apr 4, 3:00 PM)30.64 "Hg (Apr 4, 3:00 PM)
Low19 °F (Apr 16, 5:00 AM)28% (Apr 11, 6:00 PM)29.34 "Hg (Apr 8, 10:00 AM)
Average40 °F75%29.99 "Hg
* Reported Apr 4 3:00 PM — Apr 19 3:00 PM, Peterborough, Weather by CustomWeather, © 2014

Note: Actual official high and low records may vary slightly from our data, if they occured in-between our weather recording intervals... More about our weather records

Advertising

Historic Weather Conditions — Data for Previous 24 hours

 ConditionsComfort  
Time TempWeatherWind HumidityBarometerVisibility
3:00 PM
Apr 19
50 °FSunny.6 mph47%30.44 "Hg9 mi
2:00 PM48 °FSunny.3 mph46%30.46 "Hg9 mi
1:00 PM46 °FSunny.6 mph53%30.46 "Hg9 mi
12:00 PM46 °FSunny.9 mph53%30.46 "Hg9 mi
11:00 AM43 °FSunny.8 mph61%30.47 "Hg9 mi
10:00 AM41 °FPassing clouds.9 mph66%30.46 "Hg9 mi
9:00 AM39 °FSunny.9 mph75%30.44 "Hg9 mi
8:00 AM36 °FSunny.9 mph81%30.44 "Hg9 mi
7:00 AM30 °FClear.5 mph93%30.40 "Hg9 mi
6:00 AM30 °FClear.2 mph100%30.37 "Hg9 mi
5:00 AM32 °FClear.10 mph93%30.33 "Hg9 mi
4:00 AM32 °FClear.No wind93%30.31 "Hg9 mi
3:00 AM34 °FClear.5 mph87%30.31 "Hg9 mi
2:00 AM34 °FClear.6 mph87%30.30 "Hg9 mi
1:00 AM34 °FClear.8 mph87%30.29 "Hg9 mi
12:00 AM34 °FPassing clouds.7 mph87%30.28 "Hg9 mi
11:00 PM
Apr 18
36 °FPassing clouds.7 mph81%30.27 "Hg9 mi
10:00 PM39 °FPassing clouds.5 mph75%30.27 "Hg9 mi
9:00 PM41 °FPartly sunny.5 mph81%30.24 "Hg9 mi
8:00 PM43 °FSunny.6 mph81%30.23 "Hg9 mi
7:00 PM46 °FPartly sunny.8 mph76%30.23 "Hg9 mi
6:00 PM45 °FMostly cloudy.5 mph87%30.24 "Hg9 mi
5:00 PM46 °FOvercast.9 mph87%30.24 "Hg9 mi
4:00 PM46 °FLight rain. Cloudy.3 mph87%30.24 "Hg8 mi
Weather by CustomWeather, © 2014

See weather overview